Regional Weather Roundup
Issued by NWS Albany, NY

Home | Current Version | Previous Version | Text Only | Print | Product List | Glossary On
Versions: 1 2 3 4 5 6 7 8 9 10 11 12 13 14 15 16 17 18 19 20 21 22 23 24 25 26 27 28 29 30 31 32 33 34 35 36 37 38 39 40 41 42 43 44 45 46 47 48 49 50
000
ASUS41 KALY 271110
RWRALY

NEW YORK STATE HOURLY WEATHER ROUNDUP
NATIONAL WEATHER SERVICE ALBANY NY
600 AM EST TUE JAN 27 2015

NOTE: "FAIR" INDICATES FEW OR NO CLOUDS BELOW 12,000 FEET WITH NO
SIGNIFICANT WEATHER AND/OR NO OBSTRUCTIONS TO VISIBILITY.

NYZ032-033-038>043-046>054-057>066-NYZ062>081-271200-
EAST


CITY           SKY/WX    TMP DP  RH WIND       PRES   REMARKS
ALBANY         FLURRIES  14   3  61 N13       29.83F WCI   0
GLENS FALLS    CLOUDY    12   0  58 NE8       29.86F WCI   0
POUGHKEEPSIE   LGT SNOW  17  10  74 N14G24    29.73F WCI   3
NEWBURGH       LGT SNOW  18  14  86 N14G23    29.71F WCI   4
MONTGOMERY     LGT SNOW  18  14  84 N7        29.70F FOG     WCI   9
WHITE PLAINS   LGT SNOW  17  12  80 N26G33    29.59F VSB 1   WCI  -2
ISLIP          HVY SNOW  20  17  88 N30       29.55R VSB 1/4 WCI   1
NEW YORK CITY  LGT SNOW  21  15  78 N25G33    29.65S WCI   4
CENTRAL PARK   CLOUDY    21  13  71 N8G17     29.67F HAZE    WCI  11
$$

NYZ005>009-017-018-044>046-055-056-271200-
CENTRAL


CITY           SKY/WX    TMP DP  RH WIND       PRES   REMARKS
FULTON         CLOUDY     9   2  73 N10       29.91F WCI  -5
SYRACUSE       MOCLDY    10   5  80 W8        29.89F WCI  -2
ROME           CLOUDY     9   0  67 NW7       29.89S WCI  -2
ELMIRA         CLOUDY    17  12  80 NE8       29.85R WCI   7
BINGHAMTON     CLOUDY    14   9  80 N13       29.74F WCI   0
MONTICELLO     CLOUDY    18   9  68 NW12      29.67S WCI   5
$$

NYZ026>034-041>043-271200-
NORTH


CITY           SKY/WX    TMP DP  RH WIND       PRES   REMARKS
WATERTOWN      CLOUDY     5  -5  63 NE14      29.98F WCI -12
FORT DRUM      NOT AVBL
MASSENA        CLOUDY     6  -3  66 NE16G24   30.06F WCI -12
SARANAC LAKE   CLOUDY     3  -6  66 NE12      29.81F WCI -13
PLATTSBURGH    CLOUDY     7  -4  60 N18G25    30.00S WCI -12
$$

NYZ001>004-010>016-019>021-271200-
WEST


CITY           SKY/WX    TMP DP  RH WIND       PRES   REMARKS
NIAGARA FALLS  LGT SNOW  16  12  84 NE9       29.97R FOG     WCI   4
BUFFALO        LGT SNOW  16  11  80 NE14      29.95R WCI   2
DUNKIRK        LGT SNOW  17  13  84 NE13      29.94R FOG     WCI   4
JAMESTOWN      CLOUDY    12   9  85 N7        29.82R WCI   2
WELLSVILLE     LGT SNOW  12   8  84 N5        29.79R FOG     WCI   4
ROCHESTER      LGT SNOW  16  12  84 NE13      29.96R FOG     WCI   2
PENN YAN       CLOUDY    16  12  84 NW8       29.87S WCI   5
$$

             KEY
       WCI = WIND CHILL INDEX
       VSB = VISIBILITY
       HX  = HEAT INDEX
$$


USA.gov is the U.S. government's official web portal to all federal, state and local government web resources and services.